Regional Weather Roundup
Issued by NWS

Home | Current Version | Previous Version | Text Only | Print | Product List | Glossary Off
Versions: 1 2 3 4 5 6 7 8 9 10 11 12 13 14 15 16 17 18 19 20 21 22 23 24 25 26 27 28 29 30 31 32 33 34 35 36 37 38 39 40 41 42 43 44 45 46 47 48 49 50

000
ASUS45 KTFX 201319
RWRMT
MONTANA HOURLY WEATHER ROUNDUP
NATIONAL WEATHER SERVICE GREAT FALLS MT
719 AM MDT SAT SEP 20 2014

NOTE: "FAIR" INDICATES FEW OR NO CLOUDS BELOW 12000 FEET WITH NO
SIGNIFICANT WEATHER AND/OR OBSTRUCTIONS TO VISIBILITY.

* THESE STATIONS ARE NOT UNDER NWS QUALITY CONTROL. THEY DO NOT
   REPORT WEATHER SUCH AS PRECIPITATION OR FOG.

MTZ001>007-043-201400-
WEST OF THE DIVIDE
CITY           SKY/WX    TMP DP  RH WIND       PRES   REMARKS
KALISPELL      FOG       39  39 100 CALM      30.21R VSB 3
MISSOULA       PTCLDY    45  43  93 NE3       30.26R
BUTTE          CLEAR     37  34  89 SW5       30.31R WCI  33
MULLAN PASS    PTCLDY    50  43  77 N5        30.29R
* ESSEX        N/A       46  43  89 N/A        N/A
* LINCOLN      N/A       38  36  93 NW2        N/A
* LOOKOUT PASS N/A       45  44  96 N/A        N/A
* POLSON       N/A       51  45  80 S1         N/A
* RONAN APT    MOCLDY    43  39  86 N/A        N/A
* SEELEY LAKE  N/A       36  35  96 N2         N/A
* THOMP F APT  PTCLDY    50  38  64 N3G14      N/A
$$

MTZ008-052>055-201400-
SOUTHWEST MONTANA
CITY           SKY/WX    TMP DP  RH WIND       PRES   REMARKS
BOZEMAN        CLEAR     39  37  93 SE8       30.26R WCI  33
DILLON         CLEAR     43  37  79 SW7       30.28R
W YELLOWSTONE  CLEAR     30  30 100 CALM      30.35R
* THREE FORKS  CLEAR     39  25  57 N/A        N/A
* BOULDER HILL N/A       50  37  61 S6         N/A
* MONIDA PASS  N/A       41  38  89 N1         N/A
* RAYNOLDS PAS N/A       39  38  96 VRB1       N/A
* WHITEHALL    N/A       42  38  86 NE3        N/A
* WISE RIVER   N/A       36  34  92 SE5        N/A   WCI  32
$$

MTZ009>010-012-014-046-048-049-054-201400-
EAST SLOPES AND CENTRAL MONTANA
CITY           SKY/WX    TMP DP  RH WIND       PRES   REMARKS
CUT BANK       MOCLDY    46  39  77 N9        30.20R
GREAT FALLS    PTCLDY    52  41  66 SW12      30.17R
HELENA         CLEAR     46  41  83 NW5       30.22R
MALMSTROM AFB  PTCLDY    54  41  62 W9        30.18R
* CONRAD       PTCLDY    48  45  89 N5         N/A
* EAST GLACIER N/A       54  42  64 NW8        N/A
* MONARCH      N/A       43  36  76 S5         N/A
* PENDROY      N/A       53  42  66 NW12       N/A
* ROGERS PASS  N/A       49  41  74 SE2G8      N/A
* SAINT MARY   N/A       58  41  53 SW7G17     N/A
* SWEET GRASS  N/A       49  42  77 N6         N/A
* WHITE SULPH  N/A       43  38  83 NE7        N/A
$$

MTZ011-013-016-021-035-040-045-047-050-051-201400-
NORTH CENTRAL MONTANA
CITY           SKY/WX    TMP DP  RH WIND       PRES   REMARKS
HAVRE          PTCLDY    48  43  83 SW6       30.14R
* CHINOOK      PTCLDY    50  43  77 W3        30.13R
* FORT BENTON  PTCLDY    50  39  66 S5        30.19R
* CHESTER      N/A       50  42  74 NE3        N/A
* DENTON       N/A       53  42  66 NW6G12     N/A
* GEYSER       N/A       45  40  83 SW11       N/A
* JUDITH GAP   N/A       53  40  62 NW11       N/A
* LOMA         N/A       49  41  74 SW4        N/A
$$

MTZ017>020-022>027-061-062-201400-
NORTHEAST MONTANA
CITY           SKY/WX    TMP DP  RH WIND       PRES   REMARKS
GLASGOW        CLEAR     50  45  83 NW8       30.03R
JORDAN         CLEAR     52  45  77 NW12      30.06R
SIDNEY         PTCLDY    57  46  67 NW18G29   29.97R
WOLF POINT     CLEAR     55  46  72 CALM      30.01R
* BEAVER HILL  N/A       54  45  72 SW13       N/A
* CIRCLE       N/A       58  46  65 W9G14      N/A
* LINDSAY DVD  N/A       55  43  64 W23G28     N/A
$$

MTZ028>042-056>058-201400-
SOUTHCENTRAL AND SOUTHEAST MONTANA
CITY           SKY/WX    TMP DP  RH WIND       PRES   REMARKS
BAKER          CLEAR     54  45  72 W15       30.02R
BILLINGS       PTCLDY    55  41  59 SW14      30.17R
LIVINGSTON     PTCLDY    46  39  77 NW10      30.24R
MILES CITY     CLEAR     54  43  67 W3        30.05R
* LAUREL APT   MOCLDY    50  39  66 N/A        N/A
* ROUNDUP APT  CLEAR     48  39  71 N/A        N/A
* ALZADA       N/A       50  46  86 W6         N/A
* HYSHAM       N/A       52  43  72 W4         N/A
* LAME DEER    N/A       52  44  74 W7         N/A
* REED POINT   N/A       56  39  53 SW4        N/A
* ROSCOE HILL  N/A       52  36  55 S2         N/A
$$

REGIONAL REPORTS...DAKOTAS
CITY           SKY/WX    TMP DP  RH WIND       PRES   REMARKS
WILLISTON      MOCLDY    55  48  77 N14       29.93R
DICKINSON      CLEAR     54  46  74 W14       29.91R
BEACH          N/A       52  46  80 W15       29.97R
CROSBY         LGT RAIN  52  52 100 NW7       29.89F
TIOGA          FAIR      54  54 100 NW16G24   29.94R
WATFORD CITY   PTCLDY    55  50  83 NW13      29.91R
BISMARCK       PTCLDY    52  48  86 W5        29.87S
GRAND FORKS    CLOUDY    54  52  93 S3        29.80R
FARGO          PTCLDY    52  48  86 SW3       29.82R
BUFFALO SD     CLEAR     55  46  72 W14       29.96R
RAPID CITY     CLEAR     54  46  74 NW9       30.05S
$$

REGIONAL REPORTS...WYOMING/IDAHO/WASHINGTON
CITY           SKY/WX    TMP DP  RH WIND       PRES   REMARKS
GILLETTE       CLEAR     54  45  72 W10       30.15R
SHERIDAN       PTCLDY    52  43  72 W3        30.18R
CODY           PTCLDY   N/A N/A N/A N/A        N/A
YELLOWSTONE LA CLEAR     34  30  85 CALM      30.41R
SALMON         PTCLDY    41  36  82 CALM      30.25R
MULLAN PASS    PTCLDY    50  43  77 N5        30.29S
SAND POINT     CLEAR     45  45 100 CALM      30.19R
SPOKANE        PTCLDY    54  46  74 NE5       30.16R
$$

REGIONAL REPORTS...ALBERTA
CITY           SKY/WX    TMP DP  RH WIND       PRES   REMARKS
CALGARY        MOCLDY    45  36  71 SW3       30.18R
LETHBRIDGE     MOCLDY    43  39  86 SW7       30.19R
MEDICINE HAT   MOCLDY    43  43 100 S7        30.13R
EDMONTON       PTCLDY    46  36  68 W9        30.07R
WATERTON GATE  N/A       50  41  71 N9         N/A
CARDSTON       N/A       48  43  83 S1         N/A
MILK RIVER     N/A       45  39  80 NW2        N/A
$$

REGIONAL REPORTS...SASKATCHEWAN
CITY           SKY/WX    TMP DP  RH WIND       PRES   REMARKS
SWIFT CURRENT  CLEAR     48  46  93 W20       30.02R
REGINA         FAIR      52  50  93 W10       29.89R
VAL MARIE      N/A       45  43  93 NW6        N/A
ASSINIBOIA     N/A       50  48  93 W14        N/A
CORONACH       N/A       50  46  86 W10        N/A

$$



USA.gov is the U.S. government's official web portal to all federal, state and local government web resources and services.